Location: Eaton
(41.3139°N, 82.0207°W)
Time: 07:24:33
(UTC+00:00)

USA 306 - Pass Details

Date: 17 June 2021
Orbit: 566 x 573 km, 54.0° (Epoch: 16 July)

Event Time Altitude Azimuth Distance (km) Brightness Sun altitude
Exits shadow 07:53:09 37° 218° (SW) 899 3.3 -17.2°
Maximum altitude 07:54:46 78° 139° (SE) 586 2.8 -17.0°
Drops below altitude 10° 07:59:01 10° 53° (NE) 1,871 6.7 -16.6°
Sets 08:01:17 0° 52° (NE) 2,769 7.9 -16.3°
